Location: Unspecified
(0.0000°N, 0.0000°E)
Time: 02:24:32
(UTC+00:00)

SR - Pass Details

Date: 07 October 2020
Orbit: 581 x 874 km, 66.7° (Epoch: 25 October)

Event Time Altitude Azimuth Distance (km) Brightness Sun altitude
Rises 18:29:54 0° 315° (NW) 3,256 ? -10.5°
Reaches altitude 10° 18:32:39 10° 302° (WNW) 2,377 ? -11.2°
Maximum altitude 18:37:02 24° 249° (WSW) 1,652 ? -12.3°
Drops below altitude 10° 18:41:38 10° 196° (SSW) 2,493 ? -13.4°
Sets 18:44:37 0° 183° (S) 3,452 ? -14.2°
